1516777200.93,13135,4.19,73724.8,-6.55,-31.29,-31.11,0,*58
1516777202.15,13136,4.13,73730.0,-6.55,-31.17,-31.29,0,*5D
1516777203.38,13137,4.19,73728.3,-6.53,-31.29,-31.17,0,*5A
1516777204.62,13138,4.19,73732.0,-6.53,-31.29,-31.29,0,*58
1516777205.83,13139,4.19,73730.5,-6.55,-31.29,-31.17,0,*52
1516777207.07,13140,4.13,73726.3,-6.53,-31.33,-31.17,0,*51
1516777208.3,13141,4.19,73726.5,-6.53,-31.29,-31.17,0,*5B
1516777209.54,13142,4.13,73728.0,-6.53,-31.29,-31.17,0,*58
1516777210.75,13143,4.13,73728.3,-6.55,-31.29,-31.17,0,*5F
1516777211.97,13144,4.19,73724.8,-6.55,-31.29,-31.17,0,*58
1516777213.2,13145,4.19,73726.5,-6.53,-31.17,-31.17,0,*52
1516777214.44,13146,4.19,73722.5,-6.53,-31.29,-31.17,0,*5C
1516777215.67,13147,4.19,73720.3,-6.53,-31.33,-31.17,0,*56
1516777216.88,13148,4.19,73724.0,-6.55,-31.33,-31.17,0,*5F
1516777218.14,13149,4.19,73722.5,-6.53,-31.29,-31.11,0,*55
1516777219.38,13150,4.13,73716.5,-6.55,-31.17,-31.11,0,*56
1516777220.67,13151,4.13,73708.3,-6.53,-31.11,-30.95,0,*5A
1516777221.96,13152,4.19,73716.0,-6.53,-31.11,-30.73,0,*51
1516777223.2,13153,4.19,73716.8,-6.55,-31.01,-30.61,0,*54
1516777224.44,13154,4.19,73726.5,-6.55,-31.17,-30.73,0,*57
1516777225.72,13155,4.19,73730.0,-6.53,-31.11,-30.05,0,*57
1516777227.01,13156,4.19,73732.0,-6.53,-30.61,-29.89,0,*5E
1516777228.24,13157,4.19,73726.5,-6.53,-29.95,-29.61,0,*5A
1516777229.47,13158,4.19,73730.3,-6.53,-29.61,-29.61,0,*5E
1516777230.7,13159,4.19,73730.3,-6.55,-29.73,-30.11,0,*55
1516777231.94,13160,4.19,73730.3,-6.53,-29.79,-30.27,0,*56
1516777233.17,13161,4.19,73730.3,-6.53,-29.95,-30.27,0,*55
1516777234.38,13162,4.13,73728.8,-6.55,-29.79,-29.79,0,*51
1516777235.62,13163,4.13,73730.0,-6.55,-29.51,-29.57,0,*56
1516777236.88,13164,4.13,73730.8,-6.53,-29.73,-30.27,0,*58
1516777238.15,13165,4.19,73732.0,-6.53,-30.39,-30.55,0,*5A
1516777239.44,13166,4.19,73728.5,-6.53,-30.73,-30.73,0,*53
1516777240.7,13167,4.19,73728.8,-6.53,-30.83,-30.95,0,*55
1516777241.97,13168,4.19,73730.3,-6.51,-30.89,-30.77,0,*5E
1516777243.25,13169,4.19,73722.8,-6.53,-31.11,-30.95,0,*51
1516777244.48,13170,4.19,73726.0,-6.53,-31.01,-31.01,0,*54
1516777245.74,13171,4.13,73722.3,-6.53,-31.11,-31.01,0,*54
1516777246.95,13172,4.19,73724.5,-6.55,-31.17,-31.01,0,*57
1516777248.2,13173,4.19,73716.8,-6.53,-31.01,-30.95,0,*5B
1516777249.47,13174,4.19,73710.5,-6.53,-30.83,-30.77,0,*5B
1516777250.74,13175,4.19,73716.8,-6.55,-30.73,-30.73,0,*57
1516777252.01,13176,4.19,73716.8,-6.51,-30.89,-30.77,0,*51
1516777253.24,13177,4.19,73720.5,-6.55,-31.01,-30.95,0,*59
1516777254.47,13178,4.19,73732.3,-6.53,-31.01,-30.83,0,*57
1516777255.7,13179,4.19,73728.8,-6.55,-31.01,-30.95,0,*57
1516777256.92,13180,4.19,73728.0,-6.55,-31.01,-30.83,0,*56
1516777258.18,13181,4.19,73726.0,-6.55,-31.11,-30.95,0,*51
1516777259.43,13182,4.19,73726.0,-6.53,-31.01,-30.95,0,*55
1516777260.72,13183,4.19,73724.0,-6.53,-31.11,-30.95,0,*55
1516777261.98,13184,4.19,73724.5,-6.53,-31.11,-31.01,0,*5E
1516777263.24,13185,4.13,73724.0,-6.55,-31.11,-30.95,0,*55
1516777264.49,13186,4.13,73720.3,-6.53,-31.01,-30.95,0,*51
1516777265.73,13187,4.13,73716.5,-6.55,-31.01,-30.77,0,*5A
1516777266.98,13188,4.19,73724.5,-6.53,-31.01,-30.95,0,*5F
1516777268.22,13189,4.19,73718.5,-6.53,-31.01,-30.83,0,*59
1516777269.51,13190,4.19,73718.5,-6.53,-30.95,-30.73,0,*52
1516777270.75,13191,4.19,73718.8,-6.55,-31.01,-30.77,0,*5D
1516777272.04,13192,4.13,73722.3,-6.53,-31.11,-30.95,0,*55
1516777273.32,13193,4.19,73730.3,-6.53,-31.11,-30.95,0,*54
1516777274.56,13194,4.19,73726.3,-6.55,-31.01,-30.77,0,*58
1516777275.8,13195,4.19,73722.8,-6.53,-31.01,-30.83,0,*54
1516777277.08,13196,4.19,73706.0,-6.53,-30.95,-30.95,0,*5C
1516777278.33,13197,4.19,73706.3,-6.53,-31.01,-30.95,0,*51
1516777279.57,13198,4.19,73718.3,-6.53,-31.01,-30.83,0,*59
1516777280.84,13199,4.13,73712.5,-6.53,-31.11,-30.83,0,*59
1516777282.09,13200,4.19,73714.0,-6.53,-31.01,-30.95,0,*5C
1516777283.3,13201,4.13,73708.5,-6.55,-31.01,-30.83,0,*5C
1516777284.54,13202,4.19,73720.5,-6.53,-31.01,-30.83,0,*59
1516777285.78,13203,4.19,73728.5,-6.53,-31.01,-30.83,0,*58
1516777287.01,13204,4.19,73728.5,-6.53,-31.01,-30.83,0,*5F
1516777288.26,13205,4.13,73724.3,-6.53,-31.01,-30.95,0,*59
1516777289.5,13206,4.19,73724.0,-6.53,-31.01,-30.83,0,*5D
1516777290.78,13207,4.19,73722.8,-6.53,-31.11,-30.95,0,*5A
1516777292.03,13208,4.19,73728.5,-6.53,-31.01,-30.95,0,*54
1516777293.29,13209,4.19,73730.5,-6.53,-31.01,-30.95,0,*55
1516777294.52,13210,4.19,73734.8,-6.55,-31.01,-30.95,0,*5B
1516777295.73,13211,4.19,73732.0,-6.55,-31.01,-30.83,0,*5D
1516777296.99,13212,4.19,73730.5,-6.53,-31.01,-30.73,0,*57
1516777298.25,13213,4.19,73728.5,-6.55,-31.11,-30.95,0,*59
1516777299.49,13214,4.19,73732.8,-6.53,-31.01,-30.83,0,*5E
1516777300.73,13215,4.19,73728.5,-6.53,-31.01,-30.83,0,*5F
1516777301.96,13216,4.19,73730.0,-6.53,-31.01,-30.83,0,*5C
1516777303.2,13217,4.19,73728.0,-6.53,-31.01,-30.83,0,*5D
1516777304.44,13218,4.19,73726.0,-6.53,-31.01,-30.83,0,*52
1516777305.73,13219,4.19,73728.8,-6.53,-30.95,-30.77,0,*54
1516777306.97,13220,4.19,73730.3,-6.51,-30.89,-30.67,0,*50
1516777308.26,13221,4.19,73734.3,-6.53,-30.77,-30.61,0,*54
1516777309.5,13222,4.19,73734.3,-6.51,-30.89,-30.67,0,*52
1516777310.76,13223,4.19,73728.8,-6.51,-30.77,-30.55,0,*53
1516777312.03,13224,4.19,73732.8,-6.53,-30.83,-30.77,0,*5D
1516777313.32,13225,4.19,73732.5,-6.53,-30.95,-30.77,0,*5B
1516777314.56,13226,4.19,73734.5,-6.51,-30.83,-30.61,0,*5A
1516777315.83,13227,4.19,73738.0,-6.51,-30.89,-30.77,0,*56
1516777317.12,13228,4.19,73734.8,-6.53,-30.95,-30.73,0,*52
1516777318.39,13229,4.19,73738.3,-6.55,-30.95,-30.73,0,*55
1516777319.65,13230,4.19,73738.3,-6.51,-30.89,-30.73,0,*54
1516777320.94,13231,4.19,73734.5,-6.53,-30.95,-30.73,0,*5A
1516777322.23,13232,4.19,73730.5,-6.53,-30.95,-30.73,0,*59
1516777323.5,13233,4.19,73728.3,-6.53,-30.83,-30.73,0,*5F
1516777324.79,13234,4.19,73728.8,-6.53,-30.95,-30.77,0,*5B
1516777326.03,13235,4.19,73730.3,-6.51,-30.77,-30.67,0,*55
1516777327.25,13236,4.19,73734.0,-6.47,-30.83,-30.67,0,*5A
1516777328.54,13237,4.19,73730.3,-6.53,-30.95,-30.77,0,*58
1516777329.81,13238,4.19,73730.3,-6.51,-30.89,-30.77,0,*58
1516777331.08,13239,4.19,73730.8,-6.55,-30.95,-30.77,0,*50
1516777332.38,13240,4.19,73728.3,-6.53,-30.95,-30.77,0,*58
1516777333.65,13241,4.19,73726.8,-6.53,-30.83,-30.77,0,*5E
1516777334.94,13242,4.19,73726.5,-6.53,-30.95,-30.73,0,*5E
1516777336.2,13243,4.19,73724.8,-6.53,-30.95,-30.83,0,*50
1516777337.47,13244,4.19,73722.5,-6.53,-30.95,-30.83,0,*57
1516777338.74,13245,4.19,73720.5,-6.53,-30.95,-30.83,0,*56
1516777340.0,13246,4.19,73720.8,-6.53,-30.95,-30.83,0,*55
1516777341.25,13247,4.19,73716.3,-6.55,-30.95,-30.83,0,*52
1516777342.47,13248,4.19,73712.5,-6.47,-30.83,-30.67,0,*53
1516777343.73,13249,4.19,73736.5,-6.51,-30.89,-30.73,0,*5A
1516777344.95,13250,4.19,73728.0,-6.51,-30.67,-30.67,0,*57
1516777346.21,13251,4.19,73716.3,-6.51,-30.73,-30.51,0,*56
1516777347.45,13252,4.19,73714.8,-6.51,-30.77,-30.67,0,*54
1516777348.71,13253,4.19,73716.3,-6.51,-30.73,-30.55,0,*50
1516777349.97,13254,4.19,73722.8,-6.53,-30.83,-30.73,0,*5E
1516777351.24,13255,4.19,73720.8,-6.53,-30.83,-30.61,0,*5C
1516777352.48,13256,4.19,73726.3,-6.51,-30.73,-30.67,0,*54
1516777353.74,13257,4.19,73728.8,-6.47,-30.73,-30.61,0,*54
1516777354.98,13258,4.19,73728.8,-6.51,-30.89,-30.67,0,*5F
1516777356.27,13259,4.19,73730.5,-6.53,-30.95,-30.73,0,*54
1516777357.56,13260,4.19,73728.8,-6.53,-30.95,-30.73,0,*5E
1516777358.85,13261,4.19,73728.3,-6.53,-30.95,-30.73,0,*5F
1516777360.12,13262,4.19,73732.8,-6.53,-30.83,-30.73,0,*5B
1516777361.4,13263,4.19,73724.5,-6.53,-30.61,-30.39,0,*58
1516777362.65,13264,4.19,73722.5,-6.51,-30.55,-30.39,0,*5A
1516777363.88,13265,4.19,73722.8,-6.51,-30.67,-30.51,0,*54
1516777365.12,13266,4.19,73722.3,-6.51,-30.67,-30.51,0,*57
1516777366.37,13267,4.19,73720.8,-6.51,-30.55,-30.51,0,*57
1516777367.62,13268,4.19,73706.5,-6.51,-30.51,-30.39,0,*52
1516777368.88,13269,4.19,73702.0,-6.51,-30.73,-30.55,0,*59
1516777370.12,13270,4.19,73716.5,-6.51,-30.67,-30.73,0,*50
1516777371.39,13271,4.19,73714.3,-6.51,-30.77,-30.73,0,*50
1516777372.65,13272,4.19,73722.5,-6.51,-30.77,-30.77,0,*57
1516777373.92,13273,4.19,73726.0,-6.51,-30.89,-30.73,0,*53
1516777375.16,13274,4.19,73728.8,-6.47,-30.73,-30.67,0,*53
1516777376.43,13275,4.19,73728.8,-6.51,-30.77,-30.73,0,*54
1516777377.67,13276,4.19,73726.8,-6.51,-30.73,-30.67,0,*56
1516777378.93,13277,4.19,73720.5,-6.47,-30.73,-30.61,0,*56
1516777380.17,13278,4.19,73704.5,-6.51,-30.89,-30.67,0,*5D
1516777381.46,13279,4.19,73708.3,-6.53,-30.95,-30.77,0,*52
1516777382.72,13280,4.19,73704.8,-6.53,-30.83,-30.95,0,*5F
1516777383.99,13281,4.19,73724.5,-6.51,-30.89,-30.73,0,*5E
1516777385.25,13282,4.19,73722.8,-6.47,-30.89,-30.73,0,*5A
1516777386.52,13283,4.19,73720.5,-6.51,-30.77,-30.73,0,*5D
1516777387.76,13284,4.19,73718.3,-6.51,-30.89,-30.67,0,*5E
1516777389.02,13285,4.19,73712.5,-6.51,-30.89,-30.73,0,*5A
1516777390.32,13286,4.19,73706.8,-6.53,-30.95,-30.77,0,*52
1516777391.58,13287,4.19,73716.5,-6.51,-30.89,-30.73,0,*58
1516777392.82,13288,4.19,73722.3,-6.47,-30.83,-30.61,0,*59
1516777394.09,13289,4.19,73724.8,-6.51,-30.89,-30.77,0,*52
1516777395.36,13290,4.19,73728.8,-6.51,-30.89,-30.89,0,*5B
1516777396.63,13291,4.19,73732.8,-6.51,-30.89,-30.77,0,*5B
1516777397.89,13292,4.19,73734.8,-6.51,-30.89,-30.73,0,*5C
1516777399.18,13293,4.19,73730.3,-6.53,-30.95,-30.77,0,*56
1516777400.47,13294,4.19,73722.5,-6.53,-30.95,-30.73,0,*55
1516777401.74,13295,4.19,73722.0,-6.53,-30.83,-30.73,0,*53
1516777402.98,13296,4.19,73724.0,-6.51,-30.73,-30.67,0,*58
1516777404.25,13297,4.19,73730.3,-6.51,-30.77,-30.73,0,*58
1516777405.49,13298,4.19,73728.0,-6.51,-30.77,-30.67,0,*52
1516777406.75,13299,4.19,73718.3,-6.53,-30.83,-30.73,0,*5F
1516777408.02,13300,4.19,73722.5,-6.53,-30.83,-30.73,0,*5E
1516777409.31,13301,4.19,73728.0,-6.53,-30.95,-30.73,0,*58
1516777410.58,13302,4.19,73728.5,-6.53,-30.83,-30.77,0,*58
1516777411.85,13303,4.19,73730.8,-6.53,-30.83,-30.77,0,*59
1516777413.09,13304,4.19,73728.5,-6.51,-30.77,-30.67,0,*56
1516777414.38,13305,4.19,73728.5,-6.53,-30.95,-30.61,0,*5F
1516777415.64,13306,4.19,73732.5,-6.53,-30.83,-30.73,0,*58
1516777416.91,13307,4.19,73732.0,-6.53,-30.83,-30.73,0,*59
1516777418.2,13308,4.19,73734.0,-6.53,-30.77,-30.73,0,*5D
1516777419.44,13309,4.19,73736.8,-6.47,-30.73,-30.67,0,*58
1516777420.66,13310,4.19,73738.5,-6.47,-30.67,-30.67,0,*55
1516777421.92,13311,4.19,73738.5,-6.47,-30.73,-30.51,0,*54
1516777423.15,13312,4.19,73732.3,-6.51,-30.67,-30.51,0,*55
1516777424.41,13313,4.19,73734.3,-6.51,-30.73,-30.55,0,*55
1516777425.67,13314,4.19,73732.8,-6.51,-30.77,-30.51,0,*52
1516777426.9,13315,4.19,73728.8,-6.51,-30.67,-30.55,0,*56
1516777428.14,13316,4.19,73724.8,-6.51,-30.67,-30.55,0,*55
1516777429.39,13317,4.19,73726.3,-6.51,-30.73,-30.51,0,*55
1516777430.6,13318,4.19,73728.5,-6.47,-30.45,-30.27,0,*59
1516777431.8,13319,4.19,73742.3,-6.47,-30.45,-30.27,0,*58
1516777433.05,13320,4.19,73744.3,-6.53,-30.61,-30.45,0,*55
1516777434.33,13321,4.19,73736.5,-6.53,-30.39,-30.39,0,*52
1516777435.57,13322,4.19,73730.5,-6.53,-30.39,-30.27,0,*5E
1516777436.85,13323,4.19,73720.8,-6.53,-30.39,-30.39,0,*50
1516777438.08,13324,4.19,73726.0,-6.51,-30.39,-30.33,0,*5F
1516777439.31,13325,4.19,73728.5,-6.51,-30.51,-30.33,0,*50
1516777440.56,13326,4.19,73732.0,-6.47,-30.39,-30.39,0,*50
1516777441.79,13327,4.19,73736.5,-6.51,-30.51,-30.33,0,*52
1516777443.04,13328,4.19,73734.8,-6.51,-30.55,-30.39,0,*53
1516777444.3,13329,4.19,73734.0,-6.51,-30.51,-30.39,0,*56
1516777445.5,13330,4.19,73736.3,-6.47,-30.45,-30.45,0,*57
1516777446.75,13331,4.19,73730.0,-6.51,-30.51,-30.39,0,*5F
1516777448.01,13332,4.19,73730.3,-6.51,-30.51,-30.39,0,*5C
1516777449.26,13333,4.19,73724.5,-6.51,-30.55,-30.51,0,*57
1516777450.51,13334,4.19,73726.5,-6.51,-30.55,-30.51,0,*50
1516777451.76,13335,4.19,73732.8,-6.51,-30.55,-30.51,0,*51
1516777452.99,13336,4.19,73734.5,-6.51,-30.67,-30.51,0,*53
1516777454.24,13337,4.19,73730.0,-6.51,-30.55,-30.39,0,*5D
1516777455.47,13338,4.19,73732.3,-6.47,-30.55,-30.45,0,*5E
1516777456.72,13339,4.19,73730.3,-6.51,-30.55,-30.51,0,*5D
1516777457.95,13340,4.19,73728.5,-6.47,-30.51,-30.45,0,*55
1516777459.2,13341,4.19,73732.0,-6.47,-30.51,-30.39,0,*5F
1516777460.45,13342,4.19,73734.5,-6.51,-30.55,-30.39,0,*5F
1516777461.7,13343,4.19,73734.0,-6.51,-30.55,-30.39,0,*5E
1516777462.95,13344,4.19,73734.5,-6.51,-30.55,-30.39,0,*59
1516777464.21,13345,4.19,73732.3,-6.51,-30.51,-30.39,0,*5C
1516777465.44,13346,4.19,73738.0,-6.47,-30.51,-30.33,0,*52
1516777466.67,13347,4.19,73734.3,-6.47,-30.51,-30.33,0,*53
1516777467.9,13348,4.19,73732.5,-6.47,-30.51,-30.45,0,*5D
1516777469.15,13349,4.19,73730.0,-6.51,-30.55,-30.51,0,*5A
1516777470.41,13350,4.19,73724.5,-6.51,-30.51,-30.51,0,*56
1516777471.64,13351,4.19,73720.0,-6.47,-30.61,-30.45,0,*56
1516777472.89,13352,4.19,73722.3,-6.47,-30.61,-30.51,0,*50
1516777474.12,13353,4.19,73714.5,-6.47,-30.51,-30.45,0,*57
1516777475.36,13354,4.19,73728.3,-6.47,-30.51,-30.33,0,*51
1516777476.61,13355,4.19,73726.8,-6.51,-30.55,-30.39,0,*59
1516777477.86,13356,4.19,73728.0,-6.51,-30.55,-30.51,0,*54
1516777479.09,13357,4.19,73728.3,-6.51,-30.51,-30.33,0,*55
1516777480.35,13358,4.19,73732.5,-6.51,-30.51,-30.39,0,*50
1516777481.57,13359,4.19,73736.0,-6.47,-30.51,-30.27,0,*59
1516777482.82,13360,4.19,73738.0,-6.51,-30.55,-30.39,0,*5F
1516777484.03,13361,4.19,73736.5,-6.47,-30.45,-30.27,0,*57
1516777485.28,13362,4.19,73736.0,-6.51,-30.55,-30.51,0,*53
1516777486.51,13363,4.19,73738.3,-6.51,-30.67,-30.51,0,*53
1516777487.75,13364,4.19,73732.3,-6.47,-30.51,-30.33,0,*52
1516777488.98,13365,4.19,73732.5,-6.51,-30.55,-30.33,0,*50
1516777490.18,13366,4.19,73732.5,-6.51,-30.45,-30.27,0,*57
1516777491.43,13367,4.19,73736.8,-6.51,-30.55,-30.39,0,*58
1516777492.64,13368,4.19,73736.3,-6.51,-30.33,-30.33,0,*5D
1516777493.86,13369,4.19,73736.5,-6.51,-30.39,-30.23,0,*57
1516777495.09,13370,4.19,73732.3,-6.47,-30.45,-30.17,0,*54
1516777496.33,13371,4.19,73738.3,-6.47,-30.27,-30.17,0,*51
1516777497.56,13372,4.19,73738.0,-6.51,-30.39,-30.33,0,*5C
1516777498.77,13373,4.19,73734.5,-6.51,-30.33,-30.23,0,*56
1516777499.99,13374,4.19,73730.0,-6.51,-30.39,-30.23,0,*5B
1516777501.22,13375,4.19,73734.5,-6.47,-30.39,-30.23,0,*5D
1516777502.45,13376,4.19,73730.5,-6.47,-30.33,-30.39,0,*5F
1516777503.68,13377,4.19,73728.3,-6.51,-30.51,-30.33,0,*57
1516777504.89,13378,4.19,73736.3,-6.51,-30.33,-30.33,0,*5C
1516777506.1,13379,4.19,73730.5,-6.51,-30.33,-30.33,0,*5D
1516777507.32,13380,4.19,73724.0,-6.47,-30.27,-30.33,0,*59
1516777508.54,13381,4.19,73728.5,-6.51,-30.33,-30.39,0,*50
1516777509.75,13382,4.19,73724.3,-6.47,-30.33,-30.27,0,*5B
1516777510.95,13383,4.19,73724.3,-6.47,-30.45,-30.27,0,*5B
1516777512.16,13384,4.19,73726.0,-6.47,-30.33,-30.27,0,*5D
1516777513.37,13385,4.19,73722.8,-6.47,-30.27,-30.27,0,*59
1516777514.6,13386,4.19,73720.0,-6.51,-30.39,-30.33,0,*57
1516777515.8,13387,4.19,73734.3,-6.47,-30.45,-30.27,0,*5F
1516777517.01,13388,4.19,73734.3,-6.47,-30.27,-30.27,0,*54
1516777518.24,13389,4.19,73728.0,-6.47,-30.51,-30.33,0,*51
1516777519.49,13390,4.19,73722.0,-6.51,-30.51,-30.39,0,*54
1516777520.7,13391,4.19,73724.8,-6.47,-30.45,-30.45,0,*5C
1516777521.93,13392,4.19,73724.5,-6.51,-30.51,-30.33,0,*5C
1516777523.16,13393,4.19,73724.5,-6.51,-30.55,-30.33,0,*59
1516777524.37,13394,4.19,73726.0,-6.47,-30.33,-30.33,0,*59
1516777525.58,13395,4.19,73730.3,-6.47,-30.45,-30.33,0,*59
1516777526.78,13396,4.19,73730.0,-6.47,-30.45,-30.27,0,*5F
1516777528.03,13397,4.19,73724.3,-6.51,-30.55,-30.51,0,*59
1516777529.26,13398,4.19,73728.5,-6.47,-30.51,-30.45,0,*50
1516777530.49,13399,4.19,73730.8,-6.51,-30.51,-30.33,0,*57
1516777531.74,13400,4.19,73728.3,-6.51,-30.55,-30.39,0,*5E
1516777533.0,13401,4.25,73730.8,-6.51,-30.51,-30.39,0,*5B
1516777534.2,13402,4.25,73730.8,-6.47,-30.33,-30.27,0,*54
1516777535.43,13403,4.25,73734.3,-6.51,-30.39,-30.33,0,*5D
1516777536.66,13404,4.25,73734.5,-6.51,-30.39,-30.33,0,*5A
1516777537.89,13405,4.19,73730.3,-6.51,-30.39,-30.33,0,*5B
1516777539.1,13406,4.19,73732.8,-6.47,-30.33,-30.33,0,*55
1516777540.31,13407,4.19,73732.0,-6.47,-30.27,-30.27,0,*54
1516777541.54,13408,4.25,73732.8,-6.51,-30.39,-30.33,0,*56
1516777542.74,13409,4.25,73732.3,-6.47,-30.33,-30.27,0,*5F
1516777543.96,13410,4.19,73728.8,-6.51,-30.23,-30.33,0,*54
1516777545.18,13411,4.25,73728.8,-6.51,-30.39,-30.33,0,*5E
1516777546.41,13412,4.19,73726.0,-6.51,-30.39,-30.33,0,*5D
1516777547.65,13413,4.19,73726.5,-6.47,-30.27,-30.17,0,*52
1516777548.86,13414,4.19,73724.5,-6.51,-30.33,-30.23,0,*50
1516777550.06,13415,4.25,73734.0,-6.51,-30.33,-30.23,0,*51
1516777551.33,13416,4.25,73728.8,-6.47,-30.17,-30.17,0,*54
1516777552.53,13417,4.19,73726.0,-6.51,-30.23,-30.23,0,*52
1516777553.77,13418,4.19,73726.5,-6.51,-30.17,-30.23,0,*5A
1516777555.0,13419,4.19,73724.5,-6.51,-30.23,-30.17,0,*5B
1516777556.23,13420,4.25,73730.8,-6.47,-30.01,-30.11,0,*50
1516777557.43,13421,4.19,73726.8,-6.47,-30.23,-30.23,0,*50
1516777558.64,13422,4.19,73726.5,-6.51,-30.23,-30.23,0,*54
1516777559.87,13423,4.25,73724.8,-6.51,-30.33,-30.17,0,*53
1516777561.11,13424,4.19,73724.5,-6.51,-30.17,-30.23,0,*55
1516777562.31,13425,4.19,73724.3,-6.51,-30.23,-30.23,0,*53
1516777563.55,13426,4.25,73724.5,-6.51,-30.17,-30.23,0,*57
1516777564.78,13427,4.25,73722.5,-6.51,-30.23,-30.17,0,*56
1516777566.02,13428,4.19,73720.0,-6.53,-30.27,-30.27,0,*5C
1516777567.22,13429,4.25,73724.8,-6.51,-30.23,-30.23,0,*5F
1516777568.42,13430,4.19,73722.5,-6.51,-30.23,-30.23,0,*57
1516777569.66,13431,4.19,73722.0,-6.51,-30.23,-30.17,0,*51
1516777570.89,13432,4.25,73726.8,-6.51,-30.17,-30.23,0,*52
1516777572.1,13433,4.25,73728.3,-6.51,-30.33,-30.23,0,*55
1516777573.33,13434,4.19,73726.0,-6.51,-30.23,-30.17,0,*54
1516777574.54,13435,4.19,73724.5,-6.51,-30.23,-30.23,0,*52
1516777575.77,13436,4.25,73730.0,-6.47,-30.17,-30.11,0,*50
1516777577.0,13437,4.25,73728.8,-6.51,-30.23,-30.17,0,*57
1516777578.27,13438,4.19,73724.3,-6.51,-30.17,-30.17,0,*5F
1516777579.53,13439,4.19,73724.0,-6.47,-30.17,-30.17,0,*59
1516777580.74,13440,4.25,73726.3,-6.47,-30.11,-30.11,0,*57
1516777582.0,13441,4.19,73726.3,-6.51,-30.17,-30.17,0,*51
1516777583.23,13442,4.25,73730.5,-6.51,-30.17,-30.23,0,*55
1516777584.47,13443,4.19,73724.0,-6.51,-30.23,-30.17,0,*54
1516777585.67,13444,4.25,73726.5,-6.51,-30.23,-30.23,0,*54
1516777586.91,13445,4.25,73728.8,-6.47,-30.11,-30.17,0,*54
1516777588.11,13446,4.25,73728.8,-6.51,-30.23,-30.23,0,*56
1516777589.38,13447,4.25,73730.5,-6.51,-30.17,-30.17,0,*57
1516777590.58,13448,4.25,73724.5,-6.51,-30.23,-30.23,0,*58
1516777591.79,13449,4.25,73724.0,-6.47,-30.11,-30.11,0,*5E
1516777593.05,13450,4.25,73726.3,-6.51,-30.17,-30.17,0,*51
1516777594.31,13451,4.25,73724.8,-6.51,-30.17,-30.05,0,*53
1516777595.54,13452,4.25,73728.3,-6.51,-30.23,-30.01,0,*53
1516777596.78,13453,4.19,73730.3,-6.53,-30.27,-30.23,0,*54
1516777598.01,13454,4.19,73726.3,-6.51,-30.23,-30.17,0,*52
1516777599.27,13455,4.25,73724.5,-6.51,-30.17,-30.05,0,*57
1516777600.53,13456,4.25,73730.0,-6.51,-30.17,-30.05,0,*54
1516777601.75,13457,4.25,73726.3,-6.51,-30.23,-30.05,0,*52
1516777602.99,13458,4.19,73722.3,-6.51,-30.23,-30.17,0,*5E
1516777604.22,13459,4.25,73728.3,-6.51,-30.23,-30.05,0,*5C
1516777605.47,13460,4.19,73724.8,-6.51,-30.05,-30.05,0,*52
1516777606.73,13461,4.19,73728.3,-6.47,-30.01,-30.01,0,*54
1516777607.98,13462,4.25,73730.8,-6.51,-30.05,-30.01,0,*54
1516777609.24,13463,4.19,73726.5,-6.51,-30.17,-30.01,0,*56
1516777610.5,13464,4.25,73728.8,-6.51,-30.05,-30.05,0,*56
1516777611.75,13465,4.25,73728.8,-6.51,-30.05,-30.05,0,*57
1516777613.0,13466,4.25,73726.5,-6.51,-30.05,-30.05,0,*54
1516777614.26,13467,4.19,73726.5,-6.51,-30.17,-30.05,0,*56
1516777615.52,13468,4.19,73724.8,-6.51,-30.17,-30.05,0,*59
1516777616.78,13469,4.25,73728.3,-6.51,-30.17,-30.01,0,*5C
1516777617.99,13470,4.25,73728.5,-6.47,-30.11,-29.95,0,*50
1516777619.24,13471,4.25,73732.0,-6.51,-30.05,-30.01,0,*56
1516777620.5,13472,4.25,73732.0,-6.51,-30.05,-30.01,0,*55
1516777621.76,13473,4.25,73728.5,-6.51,-30.17,-29.89,0,*5F
1516777623.02,13474,4.25,73726.5,-6.51,-30.17,-30.05,0,*54
1516777624.28,13475,4.25,73730.3,-6.51,-30.05,-30.01,0,*52
1516777625.53,13476,4.19,73724.0,-6.51,-30.01,-30.01,0,*55
1516777626.79,13477,4.25,73728.8,-6.51,-30.01,-30.01,0,*54
1516777628.05,13478,4.25,73726.5,-6.51,-30.01,-30.01,0,*5B
1516777629.31,13479,4.25,73726.3,-6.51,-30.01,-30.01,0,*5A
1516777630.57,13480,4.19,73726.0,-6.51,-30.01,-29.89,0,*54
1516777631.83,13481,4.25,73726.3,-6.51,-30.01,-30.01,0,*5D
1516777633.08,13482,4.25,73726.3,-6.51,-30.05,-30.01,0,*5A
1516777634.34,13483,4.25,73728.3,-6.51,-30.01,-29.89,0,*57
1516777635.6,13484,4.19,73722.8,-6.51,-30.01,-30.01,0,*58
1516777636.88,13485,4.25,73726.5,-6.53,-30.05,-30.05,0,*5B
1516777638.13,13486,4.25,73726.3,-6.51,-30.01,-30.01,0,*5A
1516777639.39,13487,4.25,73724.8,-6.51,-30.01,-30.01,0,*5B
1516777640.65,13488,4.25,73726.0,-6.51,-30.01,-30.01,0,*54
1516777641.91,13489,4.25,73720.8,-6.51,-30.01,-30.01,0,*55
1516777643.16,13490,4.25,73726.0,-6.51,-30.01,-30.01,0,*5D
1516777644.42,13491,4.25,73724.8,-6.51,-30.01,-30.01,0,*5C
1516777645.68,13492,4.25,73726.8,-6.51,-30.01,-30.01,0,*5F
1516777646.94,13493,4.25,73722.5,-6.51,-30.01,-30.01,0,*5E
1516777648.2,13494,4.25,73720.0,-6.51,-30.01,-29.89,0,*51
1516777649.41,13495,4.25,73722.0,-6.47,-29.83,-29.83,0,*5F
1516777650.68,13496,4.25,73726.5,-6.51,-29.89,-29.89,0,*5B
1516777651.91,13497,4.25,73720.5,-6.51,-30.01,-29.83,0,*58
1516777653.16,13498,4.25,73722.0,-6.51,-29.89,-29.83,0,*5F
1516777654.37,13499,4.25,73724.5,-6.47,-29.79,-29.83,0,*56
1516777655.58,13500,4.25,73726.0,-6.51,-29.83,-29.83,0,*55
1516777656.85,13501,4.25,73724.0,-6.51,-29.89,-29.89,0,*54
1516777658.12,13502,4.25,73724.8,-6.51,-29.89,-29.89,0,*57
1516777659.33,13503,4.25,73724.5,-6.51,-29.83,-29.83,0,*56
1516777660.57,13504,4.19,73722.0,-6.51,-29.83,-29.89,0,*5B
1516777661.79,13505,4.25,73722.8,-6.47,-29.83,-29.67,0,*5D
1516777663.03,13506,4.25,73724.0,-6.51,-29.89,-29.83,0,*59
1516777664.27,13507,4.25,73724.0,-6.51,-29.89,-29.83,0,*58
1516777665.5,13508,4.25,73724.8,-6.51,-29.83,-29.73,0,*52
1516777666.71,13509,4.25,73722.8,-6.51,-29.79,-29.67,0,*53
1516777667.92,13510,4.25,73720.5,-6.51,-29.79,-29.79,0,*54
1516777669.13,13511,4.25,73720.5,-6.47,-29.83,-29.79,0,*57
1516777670.36,13512,4.25,73720.5,-6.51,-29.83,-29.73,0,*59
1516777671.57,13513,4.25,73722.8,-6.47,-29.79,-29.67,0,*5F
1516777672.81,13514,4.25,73722.0,-6.51,-29.83,-29.73,0,*5F
1516777674.04,13515,4.25,73724.8,-6.51,-29.79,-29.51,0,*5B
1516777675.25,13516,4.25,73724.3,-6.47,-29.79,-29.67,0,*5A
1516777676.46,13517,4.25,73726.3,-6.47,-29.79,-29.67,0,*5B
1516777677.67,13518,4.25,73726.0,-6.47,-29.79,-29.67,0,*54
1516777678.91,13519,4.25,73724.3,-6.51,-29.89,-29.57,0,*5E
1516777680.17,13520,4.25,73726.8,-6.51,-29.73,-29.73,0,*57
1516777681.42,13521,4.25,73724.8,-6.51,-29.73,-29.73,0,*56
1516777682.63,13522,4.25,73726.0,-6.47,-29.67,-29.67,0,*52
1516777683.89,13523,4.25,73726.0,-6.51,-29.73,-29.73,0,*54
1516777685.13,13524,4.25,73726.0,-6.47,-29.67,-29.51,0,*51
1516777686.36,13525,4.25,73730.0,-6.51,-29.73,-29.57,0,*54
1516777687.58,13526,4.25,73730.5,-6.51,-29.57,-29.57,0,*51
1516777688.83,13527,4.25,74754.5,-6.51,-29.73,-29.73,0,*50
1516777690.07,13528,4.25,73730.5,-6.47,-29.67,-29.51,0,*5D
1516777691.31,13529,4.25,73732.3,-6.47,-29.67,-29.51,0,*5C
1516777692.57,13530,4.25,73726.5,-6.47,-29.73,-29.51,0,*51
1516777693.8,13531,4.25,73730.0,-6.51,-29.73,-29.57,0,*51
1516777695.04,13532,4.25,73728.3,-6.51,-29.67,-29.51,0,*51
1516777696.26,13533,4.25,73724.8,-6.47,-29.61,-29.45,0,*54
1516777697.49,13534,4.25,73728.0,-6.47,-29.61,-29.51,0,*56
1516777698.73,13535,4.25,73730.3,-6.47,-29.61,-29.51,0,*57
1516777699.97,13536,4.25,73728.0,-6.47,-29.67,-29.51,0,*52
1516777701.18,13537,4.25,73726.8,-6.47,-29.61,-29.67,0,*50
1516777702.44,13538,4.25,73728.8,-6.45,-29.45,-29.39,0,*50
1516777703.68,13539,4.25,73728.8,-6.51,-29.57,-29.51,0,*59
1516777704.9,13540,4.25,73732.0,-6.51,-29.57,-29.57,0,*51
1516777706.17,13541,4.25,73728.0,-6.47,-29.51,-29.51,0,*57